Location: Unspecified
(22.6800°N, 112.2000°E)
Time: 12:29:27
(UTC+08:00)

ISS - Visible Passes

Search period start: 28 January 2023 00:00
Search period end: 07 February 2023 00:00
Orbit: 412 x 419 km, 51.6° (Epoch: 28 January)

Date Brightness Start Highest point End Pass type
(mag) Time Alt. Az. Time Alt. Az. Time Alt. Az.
03 Feb -1.6 19:25:21 10° N 19:26:20 14° NNE 19:26:20 14° NNE visible
04 Feb -1.4 20:12:14 10° NW 20:13:36 22° WNW 20:13:36 22° WNW visible
05 Feb -3.9 19:23:17 10° NNW 19:26:37 64° NE 19:28:15 27° SE visible
06 Feb -0.6 20:12:34 10° W 20:14:05 13° SW 20:15:35 10° SSW visible
